Time,TemperatureF,DewpointF,PressureIn,WindDirection,WindDirectionDegrees,WindSpeedMPH,WindSpeedGustMPH,Humidity,HourlyPrecipIn,Conditions,Clouds,dailyrainin,SoftwareType,DateUTC
2013-10-04 00:33:00,60.9,58.9,30.11,ESE,102,0.0,0.0,93,0.00,,,0.00,WeatherCatV1.20B785,2013-10-04 04:33:00,
2013-10-04 00:35:00,60.9,59.2,30.11,ESE,102,0.0,0.0,94,0.00,,,0.00,WeatherCatV1.20B785,2013-10-04 04:35:00,
2013-10-04 00:36:00,60.9,59.2,30.10,ESE,102,0.0,0.0,94,0.00,,,0.00,WeatherCatV1.20B785,2013-10-04 04:36:00,
2013-10-04 00:39:00,60.9,59.2,30.10,ESE,102,0.0,0.0,94,0.00,,,0.00,WeatherCatV1.20B785,2013-10-04 04:39:00,
2013-10-04 00:40:00,60.9,59.2,30.10,ESE,102,0.0,0.0,94,0.00,,,0.00,WeatherCatV1.20B785,2013-10-04 04:40:00,
2013-10-04 00:42:00,60.9,59.2,30.10,ESE,102,0.0,0.0,94,0.00,,,0.00,WeatherCatV1.20B785,2013-10-04 04:42:00,
2013-10-04 00:43:00,60.9,59.2,30.10,ESE,102,0.0,0.0,94,0.00,,,0.00,WeatherCatV1.20B785,2013-10-04 04:43:00,
2013-10-04 00:44:00,60.8,59.1,30.10,ESE,102,0.0,0.0,94,0.00,,,0.00,WeatherCatV1.20B785,2013-10-04 04:44:00,
2013-10-04 00:45:00,60.8,59.1,30.10,ESE,102,0.0,0.0,94,0.00,,,0.00,WeatherCatV1.20B785,2013-10-04 04:45:00,
2013-10-04 00:47:00,60.8,59.1,30.10,ESE,102,0.0,0.0,94,0.00,,,0.00,WeatherCatV1.20B785,2013-10-04 04:47:00,
2013-10-04 00:49:00,60.7,59.0,30.10,ESE,102,0.0,0.0,94,0.00,,,0.00,WeatherCatV1.20B785,2013-10-04 04:49:00,
2013-10-04 00:54:00,60.5,58.8,30.10,ESE,102,0.0,0.0,94,0.00,,,0.00,WeatherCatV1.20B785,2013-10-04 04:54:00,
2013-10-04 00:55:00,60.5,58.8,30.10,ESE,102,0.0,0.0,94,0.00,,,0.00,WeatherCatV1.20B785,2013-10-04 04:55:00,
2013-10-04 00:57:00,60.4,58.7,30.10,ESE,102,0.0,0.0,94,0.00,,,0.00,WeatherCatV1.20B785,2013-10-04 04:57:00,
2013-10-04 00:58:00,60.3,58.6,30.10,ESE,102,0.0,0.0,94,0.00,,,0.00,WeatherCatV1.20B785,2013-10-04 04:58:00,
2013-10-04 01:00:00,60.3,58.6,30.10,ESE,102,0.0,0.0,94,0.00,,,0.00,WeatherCatV1.20B785,2013-10-04 05:00:00,
2013-10-04 01:03:00,60.2,58.8,30.10,ESE,102,0.0,0.0,95,0.00,,,0.00,WeatherCatV1.20B785,2013-10-04 05:03:00,
2013-10-04 01:06:00,60.2,58.8,30.10,ESE,102,0.0,0.0,95,0.00,,,0.00,WeatherCatV1.20B785,2013-10-04 05:06:00,
2013-10-04 01:08:00,60.2,58.5,30.10,ESE,102,0.0,0.0,94,0.00,,,0.00,WeatherCatV1.20B785,2013-10-04 05:08:00,
2013-10-04 01:11:00,60.1,58.4,30.10,ESE,102,0.0,0.0,94,0.00,,,0.00,WeatherCatV1.20B785,2013-10-04 05:11:00,
2013-10-04 01:13:00,60.1,58.4,30.10,ESE,102,0.0,0.0,94,0.00,,,0.00,WeatherCatV1.20B785,2013-10-04 05:13:00,
2013-10-04 01:14:00,60.0,58.6,30.10,ESE,102,0.0,0.0,95,0.00,,,0.00,WeatherCatV1.20B785,2013-10-04 05:14:00,
2013-10-04 01:16:00,60.0,58.6,30.10,ESE,102,0.0,0.0,95,0.00,,,0.00,WeatherCatV1.20B785,2013-10-04 05:16:00,
2013-10-04 01:18:00,60.0,58.6,30.10,ESE,102,0.0,0.0,95,0.00,,,0.00,WeatherCatV1.20B785,2013-10-04 05:18:00,
2013-10-04 01:24:00,59.9,58.2,30.10,ESE,102,0.0,0.0,94,0.00,,,0.00,WeatherCatV1.20B785,2013-10-04 05:24:00,
2013-10-04 01:31:00,59.6,58.2,30.11,ESE,102,0.0,0.0,95,0.00,,,0.00,WeatherCatV1.20B785,2013-10-04 05:31:00,
2013-10-04 01:36:00,59.4,58.0,30.11,ESE,102,0.0,0.0,95,0.00,,,0.00,WeatherCatV1.20B785,2013-10-04 05:36:00,
2013-10-04 01:41:00,59.3,57.9,30.11,ESE,102,0.0,0.0,95,0.00,,,0.00,WeatherCatV1.20B785,2013-10-04 05:41:00,
2013-10-04 01:46:00,59.3,57.9,30.11,ESE,102,0.0,0.0,95,0.00,,,0.00,WeatherCatV1.20B785,2013-10-04 05:46:00,
2013-10-04 01:51:00,59.3,58.2,30.11,ESE,102,0.0,0.0,96,0.00,,,0.00,WeatherCatV1.20B785,2013-10-04 05:51:00,
2013-10-04 01:56:00,59.3,58.2,30.11,ESE,102,0.0,0.0,96,0.00,,,0.00,WeatherCatV1.20B785,2013-10-04 05:56:00,
2013-10-04 02:01:00,59.1,58.0,30.11,ESE,102,0.0,0.0,96,0.00,,,0.00,WeatherCatV1.20B785,2013-10-04 06:01:00,
2013-10-04 02:06:00,59.0,57.6,30.11,ESE,102,0.0,0.0,95,0.00,,,0.00,WeatherCatV1.20B785,2013-10-04 06:06:00,
2013-10-04 02:11:00,58.8,57.7,30.11,ESE,102,0.0,0.0,96,0.00,,,0.00,WeatherCatV1.20B785,2013-10-04 06:11:00,
2013-10-04 02:16:00,58.7,57.6,30.11,ESE,102,0.0,0.0,96,0.00,,,0.00,WeatherCatV1.20B785,2013-10-04 06:16:00,
2013-10-04 02:21:00,58.6,57.5,30.10,ESE,102,0.0,0.0,96,0.00,,,0.00,WeatherCatV1.20B785,2013-10-04 06:21:00,
2013-10-04 02:26:00,58.7,57.6,30.10,ESE,102,0.0,0.0,96,0.00,,,0.00,WeatherCatV1.20B785,2013-10-04 06:26:00,
2013-10-04 02:31:00,58.5,57.4,30.10,ESE,102,0.0,0.0,96,0.00,,,0.00,WeatherCatV1.20B785,2013-10-04 06:31:00,
2013-10-04 02:36:00,58.4,57.3,30.10,ESE,102,0.0,0.0,96,0.00,,,0.00,WeatherCatV1.20B785,2013-10-04 06:36:00,
2013-10-04 02:41:00,58.3,57.2,30.10,ESE,102,0.0,0.0,96,0.00,,,0.00,WeatherCatV1.20B785,2013-10-04 06:41:00,
2013-10-04 02:46:00,58.1,57.0,30.10,ESE,102,0.0,0.0,96,0.00,,,0.00,WeatherCatV1.20B785,2013-10-04 06:46:00,
2013-10-04 02:51:00,58.0,56.9,30.10,ESE,102,0.0,0.0,96,0.00,,,0.00,WeatherCatV1.20B785,2013-10-04 06:51:00,
2013-10-04 02:56:00,58.0,56.9,30.10,ESE,102,0.0,0.0,96,0.00,,,0.00,WeatherCatV1.20B785,2013-10-04 06:56:00,
2013-10-04 03:01:00,57.9,56.8,30.10,ESE,102,0.0,0.0,96,0.00,,,0.00,WeatherCatV1.20B785,2013-10-04 07:01:00,
2013-10-04 03:06:00,57.8,57.0,30.10,ESE,102,0.0,0.0,97,0.00,,,0.00,WeatherCatV1.20B785,2013-10-04 07:06:00,
2013-10-04 03:11:00,57.8,56.7,30.10,ESE,102,0.0,0.0,96,0.00,,,0.00,WeatherCatV1.20B785,2013-10-04 07:11:00,
2013-10-04 03:16:00,57.7,56.6,30.10,ESE,102,0.0,0.0,96,0.00,,,0.00,WeatherCatV1.20B785,2013-10-04 07:16:00,
2013-10-04 03:21:00,57.6,56.8,30.10,ESE,102,0.0,0.0,97,0.00,,,0.00,WeatherCatV1.20B785,2013-10-04 07:21:00,
2013-10-04 03:26:00,57.8,57.0,30.10,ESE,102,0.0,0.0,97,0.00,,,0.00,WeatherCatV1.20B785,2013-10-04 07:26:00,
2013-10-04 03:31:00,57.8,57.0,30.10,ESE,102,0.0,0.0,97,0.00,,,0.00,WeatherCatV1.20B785,2013-10-04 07:31:00,
2013-10-04 03:36:00,57.6,56.5,30.10,ESE,102,0.0,0.0,96,0.00,,,0.00,WeatherCatV1.20B785,2013-10-04 07:36:00,
2013-10-04 03:41:00,57.4,56.3,30.10,ESE,102,0.0,0.0,96,0.00,,,0.00,WeatherCatV1.20B785,2013-10-04 07:41:00,
2013-10-04 03:46:00,57.4,56.5,30.11,ESE,102,0.0,0.0,97,0.00,,,0.00,WeatherCatV1.20B785,2013-10-04 07:46:00,
2013-10-04 03:51:00,57.4,56.5,30.11,ESE,102,0.0,0.0,97,0.00,,,0.00,WeatherCatV1.20B785,2013-10-04 07:51:00,
2013-10-04 03:56:00,57.5,56.7,30.11,ESE,102,0.0,0.0,97,0.00,,,0.00,WeatherCatV1.20B785,2013-10-04 07:56:00,
2013-10-04 04:01:00,57.6,56.8,30.11,ESE,102,0.0,0.0,97,0.00,,,0.00,WeatherCatV1.20B785,2013-10-04 08:01:00,
2013-10-04 04:06:00,57.6,56.8,30.11,ESE,102,0.0,0.0,97,0.00,,,0.00,WeatherCatV1.20B785,2013-10-04 08:06:00,
2013-10-04 04:11:00,57.7,56.8,30.10,ESE,102,0.0,0.0,97,0.00,,,0.00,WeatherCatV1.20B785,2013-10-04 08:11:00,
2013-10-04 04:16:00,57.8,57.0,30.11,ESE,102,0.0,0.0,97,0.00,,,0.00,WeatherCatV1.20B785,2013-10-04 08:16:00,
2013-10-04 04:21:00,57.8,57.0,30.10,ESE,102,0.0,0.0,97,0.00,,,0.00,WeatherCatV1.20B785,2013-10-04 08:21:00,
2013-10-04 04:26:00,57.9,57.0,30.11,ESE,102,0.0,0.0,97,0.00,,,0.00,WeatherCatV1.20B785,2013-10-04 08:26:00,
2013-10-04 04:31:00,58.0,57.2,30.11,ESE,102,0.0,0.0,97,0.00,,,0.00,WeatherCatV1.20B785,2013-10-04 08:31:00,
2013-10-04 04:36:00,58.0,57.2,30.10,ESE,102,0.0,0.0,97,0.00,,,0.00,WeatherCatV1.20B785,2013-10-04 08:36:00,
2013-10-04 04:41:00,57.9,57.0,30.11,ESE,102,0.0,0.0,97,0.00,,,0.00,WeatherCatV1.20B785,2013-10-04 08:41:00,
2013-10-04 04:46:00,57.8,57.0,30.11,ESE,102,0.0,0.0,97,0.00,,,0.00,WeatherCatV1.20B785,2013-10-04 08:46:00,
2013-10-04 04:51:00,57.7,56.8,30.11,ESE,102,0.0,0.0,97,0.00,,,0.00,WeatherCatV1.20B785,2013-10-04 08:51:00,
2013-10-04 04:56:00,57.6,56.8,30.11,ESE,102,0.0,0.0,97,0.00,,,0.00,WeatherCatV1.20B785,2013-10-04 08:56:00,
2013-10-04 05:01:00,57.4,56.5,30.11,ESE,102,0.0,0.0,97,0.00,,,0.00,WeatherCatV1.20B785,2013-10-04 09:01:00,
2013-10-04 05:06:00,57.3,56.5,30.11,ESE,102,0.0,0.0,97,0.00,,,0.00,WeatherCatV1.20B785,2013-10-04 09:06:00,
2013-10-04 05:11:00,57.2,56.3,30.11,ESE,102,0.0,0.0,97,0.00,,,0.00,WeatherCatV1.20B785,2013-10-04 09:11:00,
2013-10-04 05:16:00,57.2,56.3,30.11,ESE,102,0.0,0.0,97,0.00,,,0.00,WeatherCatV1.20B785,2013-10-04 09:16:00,
2013-10-04 05:21:00,57.0,56.2,30.11,ESE,102,0.0,0.0,97,0.00,,,0.00,WeatherCatV1.20B785,2013-10-04 09:21:00,
2013-10-04 05:26:00,56.9,56.1,30.11,ESE,102,0.0,0.0,97,0.00,,,0.00,WeatherCatV1.20B785,2013-10-04 09:26:00,
2013-10-04 05:31:00,56.8,56.0,30.11,ESE,102,0.0,0.0,97,0.00,,,0.00,WeatherCatV1.20B785,2013-10-04 09:31:00,
2013-10-04 05:36:00,56.8,56.0,30.11,ESE,102,0.0,0.0,97,0.00,,,0.00,WeatherCatV1.20B785,2013-10-04 09:36:00,
2013-10-04 05:41:00,56.6,55.8,30.11,ESE,102,0.0,0.0,97,0.00,,,0.00,WeatherCatV1.20B785,2013-10-04 09:41:00,
2013-10-04 05:46:00,56.6,55.8,30.11,ESE,102,0.0,0.0,97,0.00,,,0.00,WeatherCatV1.20B785,2013-10-04 09:46:00,
2013-10-04 05:51:00,56.6,55.8,30.12,ESE,102,0.0,0.0,97,0.00,,,0.00,WeatherCatV1.20B785,2013-10-04 09:51:00,
2013-10-04 05:56:00,56.4,55.6,30.11,ESE,102,0.0,0.0,97,0.00,,,0.00,WeatherCatV1.20B785,2013-10-04 09:56:00,
2013-10-04 06:01:00,56.3,55.5,30.11,ESE,102,0.0,0.0,97,0.00,,,0.00,WeatherCatV1.20B785,2013-10-04 10:01:00,
2013-10-04 06:06:00,56.2,55.4,30.11,ESE,102,0.0,0.0,97,0.00,,,0.00,WeatherCatV1.20B785,2013-10-04 10:06:00,
2013-10-04 06:11:00,56.2,55.4,30.12,ESE,102,0.0,0.0,97,0.00,,,0.00,WeatherCatV1.20B785,2013-10-04 10:11:00,
2013-10-04 06:17:00,56.1,55.3,30.12,ESE,102,0.0,0.0,97,0.00,,,0.00,WeatherCatV1.20B785,2013-10-04 10:17:00,
2013-10-04 06:22:00,55.9,55.1,30.12,ESE,102,0.0,0.0,97,0.00,,,0.00,WeatherCatV1.20B785,2013-10-04 10:22:00,
2013-10-04 06:27:00,55.8,55.0,30.12,ESE,102,0.0,0.0,97,0.00,,,0.00,WeatherCatV1.20B785,2013-10-04 10:27:00,
2013-10-04 06:32:00,55.7,54.9,30.12,ESE,102,0.0,0.0,97,0.00,,,0.00,WeatherCatV1.20B785,2013-10-04 10:32:00,
2013-10-04 06:37:00,55.6,54.8,30.12,ESE,102,0.0,0.0,97,0.00,,,0.00,WeatherCatV1.20B785,2013-10-04 10:37:00,
2013-10-04 06:42:00,55.5,54.7,30.12,ESE,102,0.0,0.0,97,0.00,,,0.00,WeatherCatV1.20B785,2013-10-04 10:42:00,
2013-10-04 06:47:00,55.5,54.7,30.12,ESE,102,0.0,0.0,97,0.00,,,0.00,WeatherCatV1.20B785,2013-10-04 10:47:00,
2013-10-04 06:52:00,55.3,54.5,30.12,ESE,102,0.0,0.0,97,0.00,,,0.00,WeatherCatV1.20B785,2013-10-04 10:52:00,
2013-10-04 06:57:00,55.3,54.5,30.13,ESE,102,0.0,0.0,97,0.00,,,0.00,WeatherCatV1.20B785,2013-10-04 10:57:00,
2013-10-04 07:02:00,55.4,54.8,30.13,ESE,102,0.0,0.0,98,0.00,,,0.00,WeatherCatV1.20B785,2013-10-04 11:02:00,
2013-10-04 07:07:00,55.6,55.0,30.13,ESE,102,0.0,0.0,98,0.00,,,0.00,WeatherCatV1.20B785,2013-10-04 11:07:00,
2013-10-04 07:12:00,55.6,55.0,30.13,ESE,102,0.0,0.0,98,0.00,,,0.00,WeatherCatV1.20B785,2013-10-04 11:12:00,
2013-10-04 07:17:00,55.6,55.0,30.13,ESE,102,0.0,0.0,98,0.00,,,0.00,WeatherCatV1.20B785,2013-10-04 11:17:00,
2013-10-04 07:22:00,55.6,55.0,30.14,ESE,102,0.0,0.0,98,0.00,,,0.00,WeatherCatV1.20B785,2013-10-04 11:22:00,
2013-10-04 07:27:00,55.4,54.8,30.14,ESE,102,0.0,0.0,98,0.00,,,0.00,WeatherCatV1.20B785,2013-10-04 11:27:00,
2013-10-04 07:32:00,55.4,54.8,30.14,ESE,102,0.0,0.0,98,0.00,,,0.00,WeatherCatV1.20B785,2013-10-04 11:32:00,
2013-10-04 07:37:00,55.2,54.4,30.14,ESE,102,0.0,0.0,97,0.00,,,0.00,WeatherCatV1.20B785,2013-10-04 11:37:00,
2013-10-04 07:42:00,55.3,54.7,30.15,ESE,102,0.0,0.0,98,0.00,,,0.00,WeatherCatV1.20B785,2013-10-04 11:42:00,
2013-10-04 07:47:00,55.4,54.8,30.14,ESE,102,0.0,0.0,98,0.00,,,0.00,WeatherCatV1.20B785,2013-10-04 11:47:00,
2013-10-04 07:52:00,55.4,54.8,30.15,ESE,102,0.0,0.0,98,0.00,,,0.00,WeatherCatV1.20B785,2013-10-04 11:52:00,
2013-10-04 07:57:00,55.4,54.8,30.15,ESE,102,0.0,0.0,98,0.00,,,0.00,WeatherCatV1.20B785,2013-10-04 11:57:00,
2013-10-04 08:02:00,55.4,54.8,30.15,ESE,102,0.0,0.0,98,0.00,,,0.00,WeatherCatV1.20B785,2013-10-04 12:02:00,
2013-10-04 08:07:00,55.4,54.6,30.15,ESE,102,0.0,0.0,97,0.00,,,0.00,WeatherCatV1.20B785,2013-10-04 12:07:00,
2013-10-04 08:12:00,55.6,55.0,30.15,ESE,102,0.0,0.0,98,0.00,,,0.00,WeatherCatV1.20B785,2013-10-04 12:12:00,
2013-10-04 08:17:00,55.7,54.9,30.15,ESE,102,0.0,0.0,97,0.00,,,0.00,WeatherCatV1.20B785,2013-10-04 12:17:00,
2013-10-04 08:22:00,55.8,55.0,30.15,ESE,102,0.0,0.0,97,0.00,,,0.00,WeatherCatV1.20B785,2013-10-04 12:22:00,
2013-10-04 08:27:00,55.9,55.1,30.15,ESE,102,0.0,0.0,97,0.00,,,0.00,WeatherCatV1.20B785,2013-10-04 12:27:00,
2013-10-04 08:32:00,56.1,55.5,30.16,ESE,102,0.0,0.0,98,0.00,,,0.00,WeatherCatV1.20B785,2013-10-04 12:32:00,
2013-10-04 08:37:00,56.1,55.3,30.16,ESE,102,0.0,0.0,97,0.00,,,0.00,WeatherCatV1.20B785,2013-10-04 12:37:00,
2013-10-04 08:42:00,56.2,55.6,30.16,ESE,102,0.0,0.0,98,0.00,,,0.00,WeatherCatV1.20B785,2013-10-04 12:42:00,
2013-10-04 08:47:00,56.4,55.8,30.16,ESE,102,0.0,0.0,98,0.00,,,0.00,WeatherCatV1.20B785,2013-10-04 12:47:00,
2013-10-04 08:52:00,56.5,55.9,30.16,ESE,102,0.0,0.0,98,0.00,,,0.00,WeatherCatV1.20B785,2013-10-04 12:52:00,
2013-10-04 08:57:00,56.6,56.0,30.16,ESE,102,0.0,0.0,98,0.00,,,0.00,WeatherCatV1.20B785,2013-10-04 12:57:00,
2013-10-04 09:02:00,56.8,56.2,30.16,ESE,102,0.0,0.0,98,0.00,,,0.00,WeatherCatV1.20B785,2013-10-04 13:02:00,
2013-10-04 09:07:00,57.3,56.7,30.16,ESE,102,0.0,0.0,98,0.00,,,0.00,WeatherCatV1.20B785,2013-10-04 13:07:00,
2013-10-04 09:12:00,57.5,56.9,30.17,ESE,102,0.0,0.0,98,0.00,,,0.00,WeatherCatV1.20B785,2013-10-04 13:12:00,
2013-10-04 09:17:00,57.8,57.2,30.17,ESE,102,0.0,0.0,98,0.00,,,0.00,WeatherCatV1.20B785,2013-10-04 13:17:00,
2013-10-04 09:22:00,58.0,57.4,30.17,ESE,102,0.0,0.0,98,0.00,,,0.00,WeatherCatV1.20B785,2013-10-04 13:22:00,
2013-10-04 09:27:00,58.2,57.6,30.17,ESE,102,0.0,0.0,98,0.00,,,0.00,WeatherCatV1.20B785,2013-10-04 13:27:00,
2013-10-04 09:32:00,58.4,57.8,30.17,ESE,102,0.0,0.0,98,0.00,,,0.00,WeatherCatV1.20B785,2013-10-04 13:32:00,
2013-10-04 09:37:00,58.5,57.9,30.17,ESE,102,0.0,0.0,98,0.00,,,0.00,WeatherCatV1.20B785,2013-10-04 13:37:00,
2013-10-04 09:42:00,58.9,58.6,30.17,ESE,102,0.0,0.0,99,0.00,,,0.00,WeatherCatV1.20B785,2013-10-04 13:42:00,
2013-10-04 09:47:00,59.2,58.9,30.17,ESE,102,0.0,0.0,99,0.00,,,0.00,WeatherCatV1.20B785,2013-10-04 13:47:00,
2013-10-04 09:52:00,59.6,59.3,30.17,ESE,102,0.0,0.0,99,0.00,,,0.00,WeatherCatV1.20B785,2013-10-04 13:52:00,
2013-10-04 09:57:00,60.0,59.7,30.17,ESE,102,0.0,1.0,99,0.00,,,0.00,WeatherCatV1.20B785,2013-10-04 13:57:00,
2013-10-04 10:02:00,60.3,60.0,30.17,ESE,102,0.0,0.0,99,0.00,,,0.00,WeatherCatV1.20B785,2013-10-04 14:02:00,
2013-10-04 10:07:00,60.6,60.3,30.17,ESE,102,0.0,0.0,99,0.00,,,0.00,WeatherCatV1.20B785,2013-10-04 14:07:00,
2013-10-04 10:12:00,60.7,60.1,30.17,East,101,0.0,0.0,98,0.00,,,0.00,WeatherCatV1.20B785,2013-10-04 14:12:00,
2013-10-04 10:17:00,61.1,60.5,30.17,ESE,102,0.0,0.0,98,0.00,,,0.00,WeatherCatV1.20B785,2013-10-04 14:17:00,
2013-10-04 10:22:00,61.6,60.7,30.17,NE,47,2.0,3.0,97,0.00,,,0.00,WeatherCatV1.20B785,2013-10-04 14:22:00,
2013-10-04 10:27:00,62.1,60.7,30.17,ENE,60,0.0,2.0,95,0.00,,,0.00,WeatherCatV1.20B785,2013-10-04 14:27:00,
2013-10-04 10:32:00,62.3,60.5,30.17,ENE,60,0.0,0.0,94,0.00,,,0.00,WeatherCatV1.20B785,2013-10-04 14:32:00,
2013-10-04 10:37:00,62.5,60.8,30.17,ENE,69,0.0,0.0,94,0.00,,,0.00,WeatherCatV1.20B785,2013-10-04 14:37:00,
2013-10-04 10:42:00,62.8,61.0,30.17,ENE,69,0.0,0.0,94,0.00,,,0.00,WeatherCatV1.20B785,2013-10-04 14:42:00,
2013-10-04 10:47:00,63.2,61.1,30.17,ESE,111,0.0,0.0,93,0.00,,,0.00,WeatherCatV1.20B785,2013-10-04 14:47:00,
2013-10-04 10:52:00,63.6,61.2,30.17,ESE,111,0.0,0.0,92,0.00,,,0.00,WeatherCatV1.20B785,2013-10-04 14:52:00,
2013-10-04 10:57:00,63.9,61.5,30.17,ESE,111,0.0,0.0,92,0.00,,,0.00,WeatherCatV1.20B785,2013-10-04 14:57:00,
2013-10-04 11:02:00,64.1,61.4,30.16,ESE,111,0.0,0.0,91,0.00,,,0.00,WeatherCatV1.20B785,2013-10-04 15:02:00,
2013-10-04 11:07:00,64.5,61.5,30.16,ESE,111,0.0,0.0,90,0.00,,,0.00,WeatherCatV1.20B785,2013-10-04 15:07:00,
2013-10-04 11:12:00,64.9,61.9,30.16,ESE,111,0.0,0.0,90,0.00,,,0.00,WeatherCatV1.20B785,2013-10-04 15:12:00,
2013-10-04 11:17:00,65.1,62.1,30.16,ESE,111,0.0,0.0,90,0.00,,,0.00,WeatherCatV1.20B785,2013-10-04 15:17:00,
2013-10-04 11:22:00,65.3,62.3,30.15,ESE,111,0.0,0.0,90,0.00,,,0.00,WeatherCatV1.20B785,2013-10-04 15:22:00,
2013-10-04 11:27:00,65.6,62.6,30.15,ESE,111,0.0,0.0,90,0.00,,,0.00,WeatherCatV1.20B785,2013-10-04 15:27:00,
2013-10-04 11:32:00,66.5,62.5,30.15,ESE,104,0.0,0.0,87,0.00,,,0.00,WeatherCatV1.20B785,2013-10-04 15:32:00,
2013-10-04 11:37:00,67.1,62.4,30.15,ENE,57,0.0,0.0,85,0.00,,,0.00,WeatherCatV1.20B785,2013-10-04 15:37:00,
2013-10-04 11:42:00,67.5,62.8,30.15,ESE,104,0.0,1.0,85,0.00,,,0.00,WeatherCatV1.20B785,2013-10-04 15:42:00,
2013-10-04 11:47:00,68.1,62.4,30.15,East,83,0.0,1.0,82,0.00,,,0.00,WeatherCatV1.20B785,2013-10-04 15:47:00,
2013-10-04 11:52:00,68.6,62.5,30.15,SE,124,0.0,0.0,81,0.00,,,0.00,WeatherCatV1.20B785,2013-10-04 15:52:00,
2013-10-04 11:57:00,68.9,62.5,30.15,SE,134,0.0,0.0,80,0.00,,,0.00,WeatherCatV1.20B785,2013-10-04 15:57:00,
2013-10-04 12:02:00,69.2,62.8,30.15,NE,56,0.0,3.0,80,0.00,,,0.00,WeatherCatV1.20B785,2013-10-04 16:02:00,
2013-10-04 12:07:00,69.7,62.5,30.15,NNW,337,2.0,4.0,78,0.00,,,0.00,WeatherCatV1.20B785,2013-10-04 16:07:00,
2013-10-04 12:12:00,70.2,62.6,30.15,NE,43,0.0,4.0,77,0.00,,,0.00,WeatherCatV1.20B785,2013-10-04 16:12:00,
2013-10-04 12:17:00,70.6,62.3,30.15,SE,142,1.0,3.0,75,0.00,,,0.00,WeatherCatV1.20B785,2013-10-04 16:17:00,
2013-10-04 12:22:00,70.9,62.2,30.14,SE,130,0.0,1.0,74,0.00,,,0.00,WeatherCatV1.20B785,2013-10-04 16:22:00,
2013-10-04 12:27:00,71.0,62.7,30.15,ENE,75,0.0,2.0,75,0.00,,,0.00,WeatherCatV1.20B785,2013-10-04 16:27:00,
2013-10-04 12:32:00,71.1,62.0,30.14,NE,41,0.0,3.0,73,0.00,,,0.00,WeatherCatV1.20B785,2013-10-04 16:32:00,
2013-10-04 12:37:00,71.3,62.6,30.15,NNW,328,2.0,2.0,74,0.00,,,0.00,WeatherCatV1.20B785,2013-10-04 16:37:00,
2013-10-04 12:42:00,71.5,62.8,30.14,NE,44,0.0,1.0,74,0.00,,,0.00,WeatherCatV1.20B785,2013-10-04 16:42:00,
2013-10-04 12:47:00,71.9,62.4,30.14,ESE,122,0.0,1.0,72,0.00,,,0.00,WeatherCatV1.20B785,2013-10-04 16:47:00,
2013-10-04 12:52:00,72.1,63.0,30.14,NE,44,3.0,3.0,73,0.00,,,0.00,WeatherCatV1.20B785,2013-10-04 16:52:00,
2013-10-04 12:57:00,72.4,62.0,30.14,NE,55,0.0,2.0,70,0.00,,,0.00,WeatherCatV1.20B785,2013-10-04 16:57:00,
2013-10-04 13:02:00,72.7,62.7,30.14,ESE,119,0.0,0.0,71,0.00,,,0.00,WeatherCatV1.20B785,2013-10-04 17:02:00,
2013-10-04 13:07:00,73.1,62.7,30.13,East,86,0.0,0.0,70,0.00,,,0.00,WeatherCatV1.20B785,2013-10-04 17:07:00,
2013-10-04 13:12:00,73.7,62.5,30.13,SE,127,0.0,0.0,68,0.00,,,0.00,WeatherCatV1.20B785,2013-10-04 17:12:00,
2013-10-04 13:17:00,73.9,63.5,30.13,NE,50,4.0,4.0,70,0.00,,,0.00,WeatherCatV1.20B785,2013-10-04 17:17:00,
2013-10-04 13:22:00,74.7,62.6,30.12,ENE,58,0.0,2.0,66,0.00,,,0.00,WeatherCatV1.20B785,2013-10-04 17:22:00,
2013-10-04 13:27:00,74.8,63.5,30.12,ENE,68,0.0,0.0,68,0.00,,,0.00,WeatherCatV1.20B785,2013-10-04 17:27:00,
2013-10-04 13:32:00,75.2,62.6,30.12,ESE,113,2.0,2.0,65,0.00,,,0.00,WeatherCatV1.20B785,2013-10-04 17:32:00,
2013-10-04 13:37:00,76.0,62.9,30.11,East,99,0.0,1.0,64,0.00,,,0.00,WeatherCatV1.20B785,2013-10-04 17:37:00,
2013-10-04 14:02:00,76.5,63.0,30.10,East,101,0.0,1.0,63,0.00,,,0.00,WeatherCatV1.20B785,2013-10-04 18:02:00,
2013-10-04 14:07:00,76.4,62.8,30.10,ESE,108,0.0,1.0,63,0.00,,,0.00,WeatherCatV1.20B785,2013-10-04 18:07:00,
2013-10-04 14:12:00,76.2,63.1,30.10,ESE,107,0.0,0.0,64,0.00,,,0.00,WeatherCatV1.20B785,2013-10-04 18:12:00,
2013-10-04 14:17:00,76.8,63.7,30.10,East,89,0.0,1.0,64,0.00,,,0.00,WeatherCatV1.20B785,2013-10-04 18:17:00,
2013-10-04 14:22:00,78.2,64.6,30.10,ESE,113,1.0,1.0,63,0.00,,,0.00,WeatherCatV1.20B785,2013-10-04 18:22:00,
2013-10-04 14:27:00,79.0,62.9,30.09,ENE,66,0.0,3.0,58,0.00,,,0.00,WeatherCatV1.20B785,2013-10-04 18:27:00,
2013-10-04 14:32:00,80.3,63.2,30.09,NE,36,2.0,3.0,56,0.00,,,0.00,WeatherCatV1.20B785,2013-10-04 18:32:00,
2013-10-04 14:37:00,80.7,63.0,30.09,ENE,69,0.0,1.0,55,0.00,,,0.00,WeatherCatV1.20B785,2013-10-04 18:37:00,
2013-10-04 14:42:00,80.9,63.7,30.09,NE,49,0.0,1.0,56,0.00,,,0.00,WeatherCatV1.20B785,2013-10-04 18:42:00,
2013-10-04 14:47:00,80.2,64.1,30.08,ENE,71,0.0,0.0,58,0.00,,,0.00,WeatherCatV1.20B785,2013-10-04 18:47:00,
2013-10-04 14:52:00,79.9,63.3,30.08,ENE,71,0.0,0.0,57,0.00,,,0.00,WeatherCatV1.20B785,2013-10-04 18:52:00,
2013-10-04 14:57:00,80.1,62.5,30.08,ENE,71,1.0,1.0,55,0.00,,,0.00,WeatherCatV1.20B785,2013-10-04 18:57:00,
2013-10-04 15:02:00,81.1,62.8,30.08,ENE,69,0.0,2.0,54,0.00,,,0.00,WeatherCatV1.20B785,2013-10-04 19:02:00,
2013-10-04 15:07:00,81.9,64.1,30.08,ENE,69,0.0,0.0,55,0.00,,,0.00,WeatherCatV1.20B785,2013-10-04 19:07:00,
2013-10-04 15:12:00,80.7,63.5,30.08,SE,132,0.0,1.0,56,0.00,,,0.00,WeatherCatV1.20B785,2013-10-04 19:12:00,
2013-10-04 15:17:00,79.9,62.3,30.08,SE,128,0.0,0.0,55,0.00,,,0.00,WeatherCatV1.20B785,2013-10-04 19:17:00,
2013-10-04 15:22:00,79.3,62.7,30.08,SE,127,0.0,0.0,57,0.00,,,0.00,WeatherCatV1.20B785,2013-10-04 19:22:00,
2013-10-04 15:27:00,78.8,63.7,30.08,SE,127,0.0,0.0,60,0.00,,,0.00,WeatherCatV1.20B785,2013-10-04 19:27:00,
2013-10-04 15:32:00,77.9,62.9,30.08,SE,127,0.0,0.0,60,0.00,,,0.00,WeatherCatV1.20B785,2013-10-04 19:32:00,
2013-10-04 15:37:00,77.5,63.9,30.07,SE,127,0.0,0.0,63,0.00,,,0.00,WeatherCatV1.20B785,2013-10-04 19:37:00,
2013-10-04 15:42:00,77.0,65.6,30.07,SE,127,0.0,0.0,68,0.00,,,0.00,WeatherCatV1.20B785,2013-10-04 19:42:00,
2013-10-04 15:47:00,76.3,65.4,30.07,SE,127,0.0,0.0,69,0.00,,,0.00,WeatherCatV1.20B785,2013-10-04 19:47:00,
2013-10-04 15:52:00,75.8,65.3,30.07,SE,127,0.0,0.0,70,0.00,,,0.00,WeatherCatV1.20B785,2013-10-04 19:52:00,
2013-10-04 15:57:00,75.5,64.6,30.07,SE,127,0.0,0.0,69,0.00,,,0.00,WeatherCatV1.20B785,2013-10-04 19:57:00,
2013-10-04 16:02:00,75.2,65.1,30.07,SE,127,0.0,0.0,71,0.00,,,0.00,WeatherCatV1.20B785,2013-10-04 20:02:00,
2013-10-04 16:07:00,74.9,65.2,30.07,SE,127,0.0,0.0,72,0.00,,,0.00,WeatherCatV1.20B785,2013-10-04 20:07:00,
2013-10-04 16:12:00,74.8,65.6,30.07,SE,127,0.0,0.0,73,0.00,,,0.00,WeatherCatV1.20B785,2013-10-04 20:12:00,
2013-10-04 16:17:00,75.5,64.2,30.07,SE,127,0.0,0.0,68,0.00,,,0.00,WeatherCatV1.20B785,2013-10-04 20:17:00,
2013-10-04 16:22:00,76.7,64.0,30.07,SE,126,0.0,0.0,65,0.00,,,0.00,WeatherCatV1.20B785,2013-10-04 20:22:00,
2013-10-04 16:27:00,77.6,62.1,30.07,SE,126,0.0,0.0,59,0.00,,,0.00,WeatherCatV1.20B785,2013-10-04 20:27:00,
2013-10-04 16:32:00,78.6,62.6,30.07,SE,126,0.0,0.0,58,0.00,,,0.00,WeatherCatV1.20B785,2013-10-04 20:32:00,
2013-10-04 16:37:00,79.9,63.8,30.07,East,81,0.0,1.0,58,0.00,,,0.00,WeatherCatV1.20B785,2013-10-04 20:37:00,
2013-10-04 16:42:00,80.2,62.5,30.07,ENE,75,0.0,1.0,55,0.00,,,0.00,WeatherCatV1.20B785,2013-10-04 20:42:00,
2013-10-04 16:47:00,80.6,61.9,30.07,NE,47,0.0,2.0,53,0.00,,,0.00,WeatherCatV1.20B785,2013-10-04 20:47:00,
2013-10-04 16:52:00,80.7,62.0,30.07,ENE,61,0.0,2.0,53,0.00,,,0.00,WeatherCatV1.20B785,2013-10-04 20:52:00,
2013-10-04 16:57:00,80.5,62.3,30.07,ENE,70,0.0,1.0,54,0.00,,,0.00,WeatherCatV1.20B785,2013-10-04 20:57:00,
2013-10-04 17:02:00,80.1,63.5,30.07,East,98,0.0,1.0,57,0.00,,,0.00,WeatherCatV1.20B785,2013-10-04 21:02:00,
2013-10-04 17:07:00,79.6,61.5,30.07,East,98,0.0,0.0,54,0.00,,,0.00,WeatherCatV1.20B785,2013-10-04 21:07:00,
2013-10-04 17:12:00,79.6,62.0,30.07,ENE,57,3.0,3.0,55,0.00,,,0.00,WeatherCatV1.20B785,2013-10-04 21:12:00,
2013-10-04 17:17:00,79.6,62.0,30.07,ENE,59,1.0,2.0,55,0.00,,,0.00,WeatherCatV1.20B785,2013-10-04 21:17:00,
2013-10-04 17:22:00,79.3,61.2,30.07,ESE,108,0.0,0.0,54,0.00,,,0.00,WeatherCatV1.20B785,2013-10-04 21:22:00,
2013-10-04 17:27:00,79.2,63.6,30.07,ENE,64,1.0,1.0,59,0.00,,,0.00,WeatherCatV1.20B785,2013-10-04 21:27:00,
2013-10-04 17:32:00,79.2,64.6,30.07,ENE,65,0.0,0.0,61,0.00,,,0.00,WeatherCatV1.20B785,2013-10-04 21:32:00,
2013-10-04 17:37:00,78.9,65.2,30.07,ENE,60,0.0,0.0,63,0.00,,,0.00,WeatherCatV1.20B785,2013-10-04 21:37:00,
2013-10-04 17:42:00,78.4,65.2,30.07,ENE,60,0.0,0.0,64,0.00,,,0.00,WeatherCatV1.20B785,2013-10-04 21:42:00,
2013-10-04 17:47:00,77.4,65.6,30.07,ENE,59,0.0,0.0,67,0.00,,,0.00,WeatherCatV1.20B785,2013-10-04 21:47:00,
2013-10-04 17:52:00,76.7,65.3,30.07,ENE,60,0.0,0.0,68,0.00,,,0.00,WeatherCatV1.20B785,2013-10-04 21:52:00,
2013-10-04 17:57:00,76.2,65.7,30.07,ENE,59,0.0,0.0,70,0.00,,,0.00,WeatherCatV1.20B785,2013-10-04 21:57:00,
2013-10-04 18:02:00,75.5,65.4,30.07,ENE,60,0.0,0.0,71,0.00,,,0.00,WeatherCatV1.20B785,2013-10-04 22:02:00,
2013-10-04 18:07:00,75.0,65.3,30.07,ENE,60,0.0,0.0,72,0.00,,,0.00,WeatherCatV1.20B785,2013-10-04 22:07:00,
2013-10-04 18:12:00,74.6,65.8,30.07,ENE,60,0.0,0.0,74,0.00,,,0.00,WeatherCatV1.20B785,2013-10-04 22:12:00,
2013-10-04 18:17:00,74.0,65.6,30.07,ENE,60,0.0,0.0,75,0.00,,,0.00,WeatherCatV1.20B785,2013-10-04 22:17:00,
2013-10-04 18:22:00,73.3,64.9,30.07,ENE,60,0.0,0.0,75,0.00,,,0.00,WeatherCatV1.20B785,2013-10-04 22:22:00,
2013-10-04 18:27:00,73.1,65.1,30.07,ENE,60,0.0,0.0,76,0.00,,,0.00,WeatherCatV1.20B785,2013-10-04 22:27:00,
2013-10-04 18:32:00,73.0,64.6,30.07,ENE,60,0.0,0.0,75,0.00,,,0.00,WeatherCatV1.20B785,2013-10-04 22:32:00,
2013-10-04 18:37:00,73.1,64.7,30.07,ENE,60,0.0,0.0,75,0.00,,,0.00,WeatherCatV1.20B785,2013-10-04 22:37:00,
2013-10-04 18:42:00,73.2,65.2,30.07,ENE,60,0.0,0.0,76,0.00,,,0.00,WeatherCatV1.20B785,2013-10-04 22:42:00,
2013-10-04 18:47:00,73.1,65.1,30.08,ENE,60,0.0,0.0,76,0.00,,,0.00,WeatherCatV1.20B785,2013-10-04 22:47:00,
2013-10-04 18:52:00,73.0,64.6,30.08,ENE,60,0.0,0.0,75,0.00,,,0.00,WeatherCatV1.20B785,2013-10-04 22:52:00,
2013-10-04 18:57:00,72.8,64.4,30.08,ENE,60,0.0,0.0,75,0.00,,,0.00,WeatherCatV1.20B785,2013-10-04 22:57:00,
2013-10-04 19:02:00,72.6,65.0,30.08,ENE,60,0.0,0.0,77,0.00,,,0.00,WeatherCatV1.20B785,2013-10-04 23:02:00,
2013-10-04 19:07:00,72.2,64.6,30.08,ENE,60,0.0,0.0,77,0.00,,,0.00,WeatherCatV1.20B785,2013-10-04 23:07:00,
2013-10-04 19:12:00,71.9,64.7,30.08,ENE,60,0.0,0.0,78,0.00,,,0.00,WeatherCatV1.20B785,2013-10-04 23:12:00,
2013-10-04 19:17:00,71.5,64.6,30.08,ENE,60,0.0,0.0,79,0.00,,,0.00,WeatherCatV1.20B785,2013-10-04 23:17:00,
2013-10-04 19:22:00,71.2,64.3,30.08,ENE,60,0.0,0.0,79,0.00,,,0.00,WeatherCatV1.20B785,2013-10-04 23:22:00,
2013-10-04 19:27:00,70.7,64.6,30.08,ENE,66,0.0,0.0,81,0.00,,,0.00,WeatherCatV1.20B785,2013-10-04 23:27:00,
2013-10-04 19:32:00,70.3,64.2,30.09,ENE,66,0.0,0.0,81,0.00,,,0.00,WeatherCatV1.20B785,2013-10-04 23:32:00,
2013-10-04 19:37:00,69.9,64.5,30.09,ENE,66,0.0,0.0,83,0.00,,,0.00,WeatherCatV1.20B785,2013-10-04 23:37:00,
2013-10-04 19:42:00,69.4,64.3,30.09,ENE,66,0.0,0.0,84,0.00,,,0.00,WeatherCatV1.20B785,2013-10-04 23:42:00,
2013-10-04 19:47:00,68.9,64.2,30.09,ENE,66,0.0,0.0,85,0.00,,,0.00,WeatherCatV1.20B785,2013-10-04 23:47:00,
2013-10-04 19:52:00,68.6,64.2,30.09,ENE,66,0.0,0.0,86,0.00,,,0.00,WeatherCatV1.20B785,2013-10-04 23:52:00,
2013-10-04 19:57:00,68.4,64.0,30.09,ENE,66,0.0,0.0,86,0.00,,,0.00,WeatherCatV1.20B785,2013-10-04 23:57:00,
2013-10-04 20:02:00,68.3,64.3,30.09,ENE,66,0.0,0.0,87,0.00,,,0.00,WeatherCatV1.20B785,2013-10-05 00:02:00,
2013-10-04 20:07:00,68.3,64.3,30.09,ENE,66,0.0,0.0,87,0.00,,,0.00,WeatherCatV1.20B785,2013-10-05 00:07:00,
2013-10-04 20:12:00,68.4,64.4,30.10,ENE,66,0.0,0.0,87,0.00,,,0.00,WeatherCatV1.20B785,2013-10-05 00:12:00,
2013-10-04 20:17:00,68.4,64.0,30.10,ENE,66,0.0,0.0,86,0.00,,,0.00,WeatherCatV1.20B785,2013-10-05 00:17:00,
2013-10-04 20:22:00,68.4,63.7,30.10,ENE,66,0.0,0.0,85,0.00,,,0.00,WeatherCatV1.20B785,2013-10-05 00:22:00,
2013-10-04 20:27:00,68.3,63.6,30.10,ENE,66,0.0,0.0,85,0.00,,,0.00,WeatherCatV1.20B785,2013-10-05 00:27:00,
2013-10-04 20:32:00,68.1,63.4,30.10,ENE,66,0.0,0.0,85,0.00,,,0.00,WeatherCatV1.20B785,2013-10-05 00:32:00,
2013-10-04 20:37:00,67.6,63.3,30.10,ENE,66,0.0,0.0,86,0.00,,,0.00,WeatherCatV1.20B785,2013-10-05 00:37:00,
2013-10-04 20:42:00,67.2,62.9,30.10,ENE,66,0.0,0.0,86,0.00,,,0.00,WeatherCatV1.20B785,2013-10-05 00:42:00,
2013-10-04 20:47:00,66.9,62.9,30.10,ENE,66,0.0,0.0,87,0.00,,,0.00,WeatherCatV1.20B785,2013-10-05 00:47:00,
2013-10-04 20:52:00,66.6,62.6,30.10,ENE,66,0.0,0.0,87,0.00,,,0.00,WeatherCatV1.20B785,2013-10-05 00:52:00,
2013-10-04 20:57:00,66.2,62.5,30.11,ENE,66,0.0,0.0,88,0.00,,,0.00,WeatherCatV1.20B785,2013-10-05 00:57:00,
2013-10-04 21:02:00,65.8,62.1,30.11,ENE,66,0.0,0.0,88,0.00,,,0.00,WeatherCatV1.20B785,2013-10-05 01:02:00,
2013-10-04 21:07:00,65.6,62.3,30.11,ENE,66,0.0,0.0,89,0.00,,,0.00,WeatherCatV1.20B785,2013-10-05 01:07:00,
2013-10-04 21:12:00,65.3,62.3,30.11,ENE,66,0.0,0.0,90,0.00,,,0.00,WeatherCatV1.20B785,2013-10-05 01:12:00,
2013-10-04 21:17:00,65.1,62.1,30.11,ENE,66,0.0,0.0,90,0.00,,,0.00,WeatherCatV1.20B785,2013-10-05 01:17:00,
2013-10-04 21:22:00,65.0,62.3,30.11,ENE,66,0.0,0.0,91,0.00,,,0.00,WeatherCatV1.20B785,2013-10-05 01:22:00,
2013-10-04 21:27:00,64.9,62.2,30.11,ENE,66,0.0,0.0,91,0.00,,,0.00,WeatherCatV1.20B785,2013-10-05 01:27:00,
2013-10-04 21:32:00,64.7,62.3,30.11,ENE,66,0.0,0.0,92,0.00,,,0.00,WeatherCatV1.20B785,2013-10-05 01:32:00,
2013-10-04 21:37:00,64.5,62.1,30.12,ENE,66,0.0,0.0,92,0.00,,,0.00,WeatherCatV1.20B785,2013-10-05 01:37:00,
2013-10-04 21:42:00,64.4,62.0,30.12,ENE,66,0.0,0.0,92,0.00,,,0.00,WeatherCatV1.20B785,2013-10-05 01:42:00,
2013-10-04 21:47:00,64.3,61.9,30.12,ENE,66,0.0,0.0,92,0.00,,,0.00,WeatherCatV1.20B785,2013-10-05 01:47:00,
2013-10-04 21:52:00,64.1,61.7,30.12,ENE,66,0.0,0.0,92,0.00,,,0.00,WeatherCatV1.20B785,2013-10-05 01:52:00,
2013-10-04 21:57:00,63.8,61.7,30.12,ENE,66,0.0,0.0,93,0.00,,,0.00,WeatherCatV1.20B785,2013-10-05 01:57:00,
2013-10-04 22:02:00,63.6,61.5,30.12,ENE,66,0.0,0.0,93,0.00,,,0.00,WeatherCatV1.20B785,2013-10-05 02:02:00,
2013-10-04 22:07:00,63.5,61.4,30.12,ENE,66,0.0,0.0,93,0.00,,,0.00,WeatherCatV1.20B785,2013-10-05 02:07:00,
2013-10-04 22:12:00,63.3,61.2,30.12,ENE,66,0.0,0.0,93,0.00,,,0.00,WeatherCatV1.20B785,2013-10-05 02:12:00,
2013-10-04 22:17:00,63.2,61.4,30.12,ENE,66,0.0,0.0,94,0.00,,,0.00,WeatherCatV1.20B785,2013-10-05 02:17:00,
2013-10-04 22:22:00,63.2,61.4,30.12,ENE,66,0.0,0.0,94,0.00,,,0.00,WeatherCatV1.20B785,2013-10-05 02:22:00,
2013-10-04 22:27:00,63.1,61.3,30.13,ENE,66,0.0,0.0,94,0.00,,,0.00,WeatherCatV1.20B785,2013-10-05 02:27:00,
2013-10-04 22:32:00,63.0,61.2,30.13,ENE,66,0.0,0.0,94,0.00,,,0.00,WeatherCatV1.20B785,2013-10-05 02:32:00,
2013-10-04 22:37:00,63.0,61.2,30.12,ENE,66,0.0,0.0,94,0.00,,,0.00,WeatherCatV1.20B785,2013-10-05 02:37:00,
2013-10-04 22:42:00,62.8,61.0,30.12,ENE,66,0.0,0.0,94,0.00,,,0.00,WeatherCatV1.20B785,2013-10-05 02:42:00,
2013-10-04 22:47:00,62.7,60.9,30.12,ENE,66,0.0,0.0,94,0.00,,,0.00,WeatherCatV1.20B785,2013-10-05 02:47:00,
2013-10-04 22:52:00,62.5,60.8,30.12,ENE,66,0.0,0.0,94,0.00,,,0.00,WeatherCatV1.20B785,2013-10-05 02:52:00,
2013-10-04 22:57:00,62.4,61.0,30.12,ENE,66,0.0,0.0,95,0.00,,,0.00,WeatherCatV1.20B785,2013-10-05 02:57:00,
2013-10-04 23:02:00,62.2,60.8,30.12,ENE,66,0.0,0.0,95,0.00,,,0.00,WeatherCatV1.20B785,2013-10-05 03:02:00,
2013-10-04 23:07:00,62.1,60.7,30.13,ENE,66,0.0,0.0,95,0.00,,,0.00,WeatherCatV1.20B785,2013-10-05 03:07:00,
2013-10-04 23:12:00,62.0,60.5,30.12,ENE,66,0.0,0.0,95,0.00,,,0.00,WeatherCatV1.20B785,2013-10-05 03:12:00,
2013-10-04 23:17:00,61.8,60.3,30.12,ENE,66,0.0,0.0,95,0.00,,,0.00,WeatherCatV1.20B785,2013-10-05 03:17:00,
2013-10-04 23:22:00,61.7,60.2,30.12,ENE,66,0.0,0.0,95,0.00,,,0.00,WeatherCatV1.20B785,2013-10-05 03:22:00,
2013-10-04 23:27:00,61.6,60.2,30.12,ENE,66,0.0,0.0,95,0.00,,,0.00,WeatherCatV1.20B785,2013-10-05 03:27:00,
2013-10-04 23:32:00,61.5,60.3,30.12,ENE,66,0.0,0.0,96,0.00,,,0.00,WeatherCatV1.20B785,2013-10-05 03:32:00,
2013-10-04 23:37:00,61.6,60.5,30.12,ENE,66,0.0,0.0,96,0.00,,,0.00,WeatherCatV1.20B785,2013-10-05 03:37:00,
2013-10-04 23:42:00,61.5,60.3,30.12,ENE,66,0.0,0.0,96,0.00,,,0.00,WeatherCatV1.20B785,2013-10-05 03:42:00,
2013-10-04 23:47:00,61.5,60.3,30.12,ENE,66,0.0,0.0,96,0.00,,,0.00,WeatherCatV1.20B785,2013-10-05 03:47:00,
2013-10-04 23:52:00,61.4,60.2,30.12,ENE,66,0.0,0.0,96,0.00,,,0.00,WeatherCatV1.20B785,2013-10-05 03:52:00,
2013-10-04 23:57:00,61.3,60.2,30.12,ENE,66,0.0,0.0,96,0.00,,,0.00,WeatherCatV1.20B785,2013-10-05 03:57:00,